Regional Weather Roundup
Issued by NWS

Home | Current Version | Previous Version | Graphics & Text | Print | Product List | Glossary On
Versions: 1 2 3 4 5 6 7 8 9 10 11 12 13 14 15 16 17 18 19 20 21 22 23 24 25 26 27 28 29 30 31 32 33 34 35 36 37 38 39 40 41 42 43 44 45 46 47 48 49 50
000
ASUS43 KLOT 282203
RWRIL

ILLINOIS REGIONAL WEATHER ROUNDUP
NATIONAL WEATHER SERVICE CHICAGO/ROMEOVILLE IL
500 PM CDT THU APR 28 2016

NOTE: "FAIR" INDICATES FEW OR NO CLOUDS BELOW 12,000 FEET WITH NO
SIGNIFICANT WEATHER AND/OR OBSTRUCTIONS TO VISIBILITY.

* THESE STATIONS ARE NOT UNDER NWS QUALITY CONTROL. THEY ALSO MAY NOT
  REPORT WEATHER SUCH AS PRECIPITATION OR FOG.

ILZ001-002-007-009-015-016-024-282300-
NORTHWEST ILLINOIS

CITY           SKY/WX    TMP DP  RH WIND       PRES   REMARKS
MOLINE         CLOUDY    57  49  74 NW6       29.90R
STERLING*      CLOUDY    52  48  87 NE6       29.92R
$$

ILZ003-004-008-010-011-017-018-282300-
NORTH CENTRAL ILLINOIS

CITY           SKY/WX    TMP DP  RH WIND       PRES   REMARKS
ROCKFORD       CLOUDY    48  41  76 E13       29.96R
FREEPORT*      CLOUDY    47  43  84 NE9       29.95R FOG
ROCHELLE*      CLOUDY    51  46  80 NE10      29.92R
DE KALB*       CLOUDY    49  44  81 NE9       29.93R
$$

ILZ005-006-012>014-019>023-282300-
NORTHEAST ILLINOIS

CITY           SKY/WX    TMP DP  RH WIND       PRES   REMARKS
CHICAGO-OHARE  CLOUDY    46  40  79 NE12      29.93S
CHICAGO-MIDWAY CLOUDY    49  41  74 NE9       29.92S
AURORA         CLOUDY    53  45  74 NE9       29.92R HAZE
LANSING*       CLOUDY    50  44  80 NE8       29.92R
WAUKEGAN       CLOUDY    40  39  97 NE9       29.95S
DUPAGE AIRPORT CLOUDY    49  40  71 NE12      29.92R
WHEELING       CLOUDY    44  39  82 NE14      29.95S
NORTHERLY ISL    N/A     44  40  85 N9          N/A
NORTHERLY ISL    N/A     44  40  85 N9          N/A
$$

LMZ740>746-282300-
SOUTHERN LAKE MICHIGAN

STATION/POSITION SKY/WX   TEMP    WIND        PRES    VSBY  WAVE
                          AIR SEA DIR/SP/G                  HT/PER
                          (F)     (DEG/KT/KT) (MB)    (MI)  (FT/S)
SOUTHERN BUOY              40 40   60/ 16/ 17 1013.9          3/ 4
HARRISON CRIB              43      20/ 12/ 12   N/A
BURNHAM HARBOR             45      10/ 10/ 11   N/A
CALUMET HARBOR             46     360/  7/ 10 1012.6R
BURNS HARBOR               47      10/  7/ 13 1013.2R
MICHIGAN CITY              48     350/  9/ 10   N/A
ST. JOSEPH                 51 48  120/  8/ 10   N/A           2/ 5
$$

ILZ025>027-034>036-040-047-049-050-058-095>099-282300-
WEST-CENTRAL ILLINOIS

CITY           SKY/WX    TMP DP  RH WIND       PRES   REMARKS
QUINCY         CLOUDY    60  47  61 W10       29.92R
MACOMB*        CLOUDY    58  49  71 W13       29.94R
PITTSFIELD*    PTSUNNY   61  47  59 W13       29.95R
$$

ILZ028>032-037-038-041>044-048-051>054-059>061-282300-
CENTRAL ILLINOIS

CITY           SKY/WX    TMP DP  RH WIND       PRES   REMARKS
BLOOMINGTON    PTSUNNY   62  51  67 W21       29.90R
DECATUR        SUNNY     67  48  50 W16G25    29.90R
PEORIA         PTSUNNY   58  46  64 W10       29.91R
SPRINGFIELD    PTSUNNY   64  50  60 W15       29.92R
TAYLORVILLE    NOT AVBL
$$

ILZ033-039-045-046-055>057-062-063-282300-
EAST-CENTRAL ILLINOIS

CITY           SKY/WX    TMP DP  RH WIND       PRES   REMARKS
CHAMPAIGN      PTSUNNY   67  52  58 W20G28    29.87R
MATTOON        SUNNY     67  49  52 W16G24    29.88R
$$

ILZ079-100>102-282300-
SOUTHWEST ILLINOIS

CITY           SKY/WX    TMP DP  RH WIND       PRES   REMARKS
BELLEVILLE     SUNNY     73  50  44 VRB2      29.89R
CAHOKIA*       SUNNY     73  47  39 W7G18     29.90R
SPARTA*        SUNNY     73  50  43 NW5       29.91R
$$

ILZ064>066-069>071-074>076-080>082-084>086-088>090-092>094-282300-
SOUTH-CENTRAL ILLINOIS

CITY           SKY/WX    TMP DP  RH WIND       PRES   REMARKS
CARBONDALE     SUNNY     76  48  37 W10       29.89S
MARION         MOSUNNY   77  50  38 SW9       29.90S
MT. VERNON     SUNNY     73  52  46 W8        29.90S
SALEM*         MOSUNNY   72  52  49 W10G17    29.90R
$$

ILZ067-068-072-073-078-083-087-091-282300-
SOUTHEAST ILLINOIS

CITY           SKY/WX    TMP DP  RH WIND       PRES   REMARKS
LAWRENCEVILLE  MOSUNNY   73  51  46 W12       29.88R
FLORA*         MOSUNNY   72  52  48 W13G20    29.90R
HARRISBURG*    SUNNY     76  50  39 W12G21    29.89F
ROBINSON*      MOSUNNY   72  52  49 W16G23    29.88S
$$

ABBREVIATIONS USED IN REMARKS
   TC - TEMPERATURE IN CELSIUS
  WCI - WIND CHILL INDEX
   HX - HEAT INDEX
  VSB - VISIBILITY
$$





USA.gov is the U.S. government's official web portal to all federal, state and local government web resources and services.